Location: Brantley
(31.5822°N, 86.2569°W)
Time: 00:45:14
(UTC+00:00)

Courier 1B Rocket - Pass Details

Date: 19 February 2026
Orbit: 920 x 1201 km, 28.2° (Epoch: 10 March)

Event Time Altitude Azimuth Distance (km) Brightness Sun altitude
Rises 00:56:47 0° 250° (WSW) 3,543 9.3 -18.2°
Reaches altitude 10° 00:59:25 10° 246° (WSW) 2,602 8.3 -18.7°
Maximum altitude 01:05:29 56° 169° (S) 1,096 5.2 -20.0°
Enters shadow 01:07:58 35° 110° (ESE) 1,474 5.4 -20.5°
Drops below altitude 10° 01:11:47 10° 93° (E) 2,697 - -21.4°
Sets 01:14:33 0° 89° (E) 3,682 - -21.9°
